Погода в Суре

Оман     22°34′03″N   59°31′40″E
темп.,
°C
ветер,
м/с
пор.,
м/с
влажн.,
%
обл.,
%
осадки,
мм/ч
давл.,
гПа
погр.,
м
6 мая, чт
чт601:00+29ююз685853 0.0 1007290
04:00+28зюз335544 0.0 100744
07:00+28ссз237415 0.4 1010298
10:00+33юв124515 0.4 1010990
13:00+34всв454699 0.1 10072102
16:00+28вюв576697 1.1 1008424
19:00+29ююз575996 1.0 1009434
22:00+30ююз575389 1.0 1009351
7 мая, пт
пт701:00+29ююз575444 0.0 1008195
04:00+28юз56553 0.0 1008120
07:00+29юз564982 0.0 1010273
10:00+34зюз243364 0.0 10101027
13:00+35св133197 0.0 10091798
16:00+34всв4441100 0.0 1007743
19:00+32ю675099 0.0 1008440
22:00+30ююз6760100 0.0 1009346
8 мая, сб
сб801:00+30ююз686196 0.0 1008345
04:00+29ююз5863100 0.0 1008240
07:00+30юз565824 0.0 1009395
10:00+34св21406 0.0 10091115
13:00+33с6550100 0.1 1008929
16:00+32зсз034790 1.4 1006457
19:00+29зсз5848100 0.9 1008331
22:00+26юз995793 5.1 1011222
9 мая, вс
вс901:00+29ю563990 0.1 1006153
04:00+28ююз33462 0.1 100635
07:00+30з234754 0.0 1008187
10:00+33ю024062 0.0 1008935
13:00+33с44420 0.0 10071175
16:00+32ссв444894 0.1 1006530
19:00+27зюз7964100 2.1 1008249
22:00+30ююз56514 2.1 1007207
10 мая, пн
пн1001:00+29юз46600 0.0 1005165
04:00+29юз45580 0.0 1006100
07:00+30зюз33530 0.0 1007151
10:00+34ю12360 0.0 1008942
13:00+36св34310 0.0 10061804
16:00+34всв34390 0.0 1004577
19:00+34ююв57390 0.0 1004405
22:00+31ююз68510 0.0 1006283